Location: Newark
(46.7000°N, 60.6000°W)
Time: 14:24:16
(UTC+00:00)

Tiros 1 despin weight - Visible Passes

Search period start: 31 October 2020 00:00
Search period end: 10 November 2020 00:00
Orbit: 594 x 641 km, 48.2° (Epoch: 31 October)

Date Brightness Start Highest point End Pass type
(mag) Time Alt. Az. Time Alt. Az. Time Alt. Az.
31 Oct ? 07:40:33 23° ESE 07:40:33 23° ESE 07:42:15 10° ESE visible
31 Oct ? 09:17:37 23° WSW 09:19:00 27° SW 09:22:44 10° SSE visible
01 Nov ? 07:56:39 25° SE 07:56:39 25° SE 07:58:33 10° SE visible
01 Nov ? 09:33:43 14° WSW 09:35:06 16° SW 09:37:46 10° S visible
02 Nov ? 08:12:50 21° SSE 08:12:50 21° SSE 08:14:33 10° SE visible
03 Nov ? 08:29:06 14° S 08:29:06 14° S 08:30:05 10° SSE visible
09 Nov ? 22:28:47 10° S 22:31:00 17° SSE 22:31:00 17° SSE visible
